Terminal Aerodrome Forecast
Issued by NWS Paducah, KY

Home | Current Version | Previous Version | Text Only | Print | Product List | Glossary On
Versions: 1 2 3 4 5 6 7 8 9 10 11 12 13 14 15 16 17 18 19
000
FTUS43 KPAH 252300
TAFPAH
TAF
KPAH 252320Z 2600/2624 10003KT P6SM SCT250
     FM260700 00000KT 2SM BR FEW250
     FM261030 00000KT 1/2SM FG FEW250
     FM261230 VRB03KT P6SM SKC=

USA.gov is the U.S. government's official web portal to all federal, state and local government web resources and services.